SWA8820 KLAX-KPHX

Flight info

Callsign SWA8820
Flight time 1h 1m
Altitude 35000
Route DOTSS2 CNERY BLH HYDRR1
Aircraft A20N/M-SDE2E3FGHIRWXY/LB1

Departure

Time 2026-05-04 02:23
Airport Los Angeles International Airport (KLAX)

Arrival

Time 2026-05-04 03:24
Airport Phoenix Sky Harbor International Airport (KPHX)
Time Latitude Longitude Altitude Speed Heading
2026-05-04 01:56 33.94597 -118.40329 125 ft 0 kts 240°
2026-05-04 02:15 33.94597 -118.40328 116 ft 1 kts 240°
2026-05-04 02:15 33.94601 -118.40320 120 ft 1 kts 240°
2026-05-04 02:15 33.94605 -118.40311 122 ft 1 kts 253°
2026-05-04 02:15 33.94607 -118.40302 122 ft 1 kts 264°
2026-05-04 02:16 33.94607 -118.40293 122 ft 1 kts 290°
2026-05-04 02:16 33.94604 -118.40284 122 ft 1 kts 328°
2026-05-04 02:16 33.94599 -118.40281 121 ft 0 kts 350°
2026-05-04 02:17 33.94634 -118.40283 122 ft 11 kts
2026-05-04 02:17 33.94698 -118.40263 121 ft 6 kts 16°
2026-05-04 02:17 33.94726 -118.40258 124 ft 1 kts
2026-05-04 02:18 33.94762 -118.40260 124 ft 11 kts 355°
2026-05-04 02:18 33.94843 -118.40282 124 ft 14 kts 345°
2026-05-04 02:18 33.94891 -118.40279 122 ft 0 kts 20°
2026-05-04 02:18 33.94921 -118.40249 123 ft 0 kts 46°
2026-05-04 02:19 33.94906 -118.40268 125 ft 5 kts 54°
2026-05-04 02:19 33.94924 -118.40201 125 ft 12 kts 83°
2026-05-04 02:19 33.94927 -118.40073 125 ft 15 kts 89°
2026-05-04 02:19 33.94928 -118.39951 125 ft 9 kts 69°
2026-05-04 02:20 33.94931 -118.39944 125 ft 1 kts 62°
2026-05-04 02:20 33.94950 -118.39924 123 ft 7 kts 30°
2026-05-04 02:20 33.94974 -118.39914 122 ft 7 kts 12°
2026-05-04 02:20 33.95032 -118.39923 124 ft 7 kts 334°
2026-05-04 02:21 33.95038 -118.39928 122 ft 2 kts 318°
2026-05-04 02:21 33.95042 -118.39937 123 ft 2 kts 294°
2026-05-04 02:21 33.95046 -118.39956 121 ft 0 kts 269°
2026-05-04 02:22 33.95045 -118.39963 121 ft 3 kts 267°
2026-05-04 02:22 33.95045 -118.39970 122 ft 0 kts 264°
2026-05-04 02:22 33.95044 -118.39973 122 ft 3 kts 264°
2026-05-04 02:22 33.94995 -118.40405 125 ft 103 kts 263°
2026-05-04 02:23 33.94876 -118.41550 277 ft 162 kts 262°
2026-05-04 02:23 33.94710 -118.42993 853 ft 179 kts 261°
2026-05-04 02:23 33.94513 -118.44476 1607 ft 188 kts 260°
2026-05-04 02:23 33.94282 -118.46063 2407 ft 176 kts 259°
2026-05-04 02:24 33.94069 -118.47423 2622 ft 157 kts 259°
2026-05-04 02:24 33.93934 -118.48255 2681 ft 148 kts 259°
2026-05-04 02:24 33.93691 -118.49930 2850 ft 159 kts 261°
2026-05-04 02:24 33.93537 -118.51279 2975 ft 166 kts 263°
2026-05-04 02:25 33.93455 -118.52217 3076 ft 169 kts 265°
2026-05-04 02:25 33.93358 -118.54110 3272 ft 172 kts 267°
2026-05-04 02:25 33.93318 -118.55551 3500 ft 170 kts 268°
2026-05-04 02:25 33.93288 -118.56503 3687 ft 167 kts 268°
2026-05-04 02:26 33.93235 -118.57888 3962 ft 164 kts 267°
2026-05-04 02:26 33.93057 -118.59219 4300 ft 157 kts 252°
2026-05-04 02:26 33.92548 -118.60394 4488 ft 165 kts 234°
2026-05-04 02:26 33.91700 -118.61397 4536 ft 178 kts 218°
2026-05-04 02:27 33.90559 -118.62117 4493 ft 194 kts 202°
2026-05-04 02:27 33.89192 -118.62470 4383 ft 209 kts 188°
2026-05-04 02:27 33.87691 -118.62476 4129 ft 226 kts 181°
2026-05-04 02:27 33.86052 -118.62349 3647 ft 247 kts 177°
2026-05-04 02:28 33.84291 -118.62040 3397 ft 261 kts 172°
2026-05-04 02:28 33.82495 -118.61488 3205 ft 272 kts 163°
2026-05-04 02:28 33.80748 -118.60558 3129 ft 277 kts 153°
2026-05-04 02:28 33.79109 -118.59378 3262 ft 273 kts 150°
2026-05-04 02:29 33.77526 -118.58149 3418 ft 270 kts 148°
2026-05-04 02:29 33.75983 -118.56867 3533 ft 268 kts 146°
2026-05-04 02:29 33.74497 -118.55559 3763 ft 260 kts 145°
2026-05-04 02:29 33.73098 -118.54274 4174 ft 244 kts 144°
2026-05-04 02:30 33.71774 -118.53213 4859 ft 211 kts 156°
2026-05-04 02:30 33.70517 -118.52671 5536 ft 179 kts 173°
2026-05-04 02:30 33.69253 -118.52522 6624 ft 188 kts 183°
2026-05-04 02:30 33.67774 -118.52586 7129 ft 238 kts 189°
2026-05-04 02:31 33.65969 -118.52868 7476 ft 286 kts 190°
2026-05-04 02:31 33.63977 -118.53156 7770 ft 283 kts 189°
2026-05-04 02:31 33.62064 -118.53385 8054 ft 270 kts 187°
2026-05-04 02:31 33.60257 -118.53544 9211 ft 257 kts 186°
2026-05-04 02:32 33.58479 -118.53649 10608 ft 254 kts 185°
2026-05-04 02:32 33.56683 -118.53523 11643 ft 272 kts 169°
2026-05-04 02:32 33.54912 -118.52459 12290 ft 304 kts 144°
2026-05-04 02:32 33.53498 -118.50406 12871 ft 337 kts 121°
2026-05-04 02:33 33.52766 -118.47617 13467 ft 366 kts 99°
2026-05-04 02:33 33.52909 -118.44514 14338 ft 382 kts 82°
2026-05-04 02:33 33.53487 -118.41352 15051 ft 395 kts 78°
2026-05-04 02:33 33.54182 -118.38106 15811 ft 407 kts 77°
2026-05-04 02:34 33.54912 -118.34789 16543 ft 418 kts 77°
2026-05-04 02:34 33.55662 -118.31378 17227 ft 427 kts 76°
2026-05-04 02:34 33.56426 -118.27898 17900 ft 437 kts 76°
2026-05-04 02:34 33.57207 -118.24327 18534 ft 447 kts 76°
2026-05-04 02:35 33.57996 -118.20712 19241 ft 451 kts 76°
2026-05-04 02:35 33.58794 -118.17051 19914 ft 456 kts 76°
2026-05-04 02:35 33.59599 -118.13347 20593 ft 462 kts 76°
2026-05-04 02:35 33.60413 -118.09599 21275 ft 467 kts 76°
2026-05-04 02:36 33.61236 -118.05805 22028 ft 473 kts 76°
2026-05-04 02:36 33.62068 -118.01962 22775 ft 479 kts 76°
2026-05-04 02:36 33.62909 -117.98075 23505 ft 485 kts 76°
2026-05-04 02:36 33.63741 -117.94130 24092 ft 490 kts 77°
2026-05-04 02:37 33.64578 -117.90139 24614 ft 498 kts 78°
2026-05-04 02:37 33.65048 -117.86004 25140 ft 501 kts 91°
2026-05-04 02:37 33.64908 -117.81829 25663 ft 503 kts 99°
2026-05-04 02:37 33.64572 -117.77621 26182 ft 510 kts 98°
2026-05-04 02:38 33.64473 -117.73331 26678 ft 519 kts 93°
2026-05-04 02:38 33.64458 -117.68982 27167 ft 525 kts 94°
2026-05-04 02:38 33.64408 -117.64581 27647 ft 531 kts 94°
2026-05-04 02:38 33.64360 -117.60141 28112 ft 536 kts 94°
2026-05-04 02:39 33.64322 -117.55622 28557 ft 542 kts 94°
2026-05-04 02:39 33.64291 -117.51070 29008 ft 548 kts 94°
2026-05-04 02:39 33.64264 -117.46486 29433 ft 554 kts 94°
2026-05-04 02:39 33.64237 -117.41848 29788 ft 559 kts 94°
2026-05-04 02:40 33.64208 -117.37153 30229 ft 564 kts 94°
2026-05-04 02:40 33.64178 -117.32431 30574 ft 569 kts 94°
2026-05-04 02:40 33.64145 -117.27661 30969 ft 573 kts 94°
2026-05-04 02:40 33.64110 -117.22866 31404 ft 576 kts 94°
2026-05-04 02:41 33.64073 -117.18051 31862 ft 578 kts 94°
2026-05-04 02:41 33.64035 -117.13230 32365 ft 578 kts 94°
2026-05-04 02:41 33.63995 -117.08402 32840 ft 579 kts 95°
2026-05-04 02:41 33.63953 -117.03565 33346 ft 580 kts 95°
2026-05-04 02:42 33.63908 -116.98721 33837 ft 581 kts 95°
2026-05-04 02:42 33.63861 -116.93877 34278 ft 580 kts 95°
2026-05-04 02:42 33.63813 -116.89042 34729 ft 579 kts 95°
2026-05-04 02:42 33.63763 -116.84222 34919 ft 576 kts 95°
2026-05-04 02:43 33.63656 -116.74649 34941 ft 574 kts 95°
2026-05-04 02:43 33.63542 -116.65071 34855 ft 572 kts 95°
2026-05-04 02:44 33.63418 -116.55496 34828 ft 574 kts 95°
2026-05-04 02:44 33.63291 -116.45927 34833 ft 576 kts 95°
2026-05-04 02:45 33.63155 -116.36322 34770 ft 575 kts 95°
2026-05-04 02:45 33.63011 -116.26737 34755 ft 576 kts 95°
2026-05-04 02:46 33.62860 -116.17113 34755 ft 577 kts 95°
2026-05-04 02:46 33.62702 -116.07497 34754 ft 577 kts 95°
2026-05-04 02:47 33.62537 -115.97869 34761 ft 577 kts 95°
2026-05-04 02:47 33.62364 -115.88272 34755 ft 576 kts 95°
2026-05-04 02:48 33.62183 -115.78675 34753 ft 574 kts 95°
2026-05-04 02:48 33.61995 -115.69105 34769 ft 574 kts 95°
2026-05-04 02:49 33.61787 -115.59525 34759 ft 572 kts 97°
2026-05-04 02:49 33.60731 -115.50157 34750 ft 566 kts 104°
2026-05-04 02:50 33.59549 -115.40825 34734 ft 566 kts 104°
2026-05-04 02:50 33.59085 -115.36099 34844 ft 574 kts 101°
2026-05-04 02:50 33.58696 -115.31283 34784 ft 585 kts 99°
2026-05-04 02:51 33.58012 -115.21419 34696 ft 600 kts 98°
2026-05-04 02:51 33.57703 -115.16441 34981 ft 597 kts 98°
2026-05-04 02:51 33.57396 -115.11478 35249 ft 596 kts 98°
2026-05-04 02:52 33.57091 -115.06526 35541 ft 594 kts 98°
2026-05-04 02:52 33.56788 -115.01593 35814 ft 593 kts 98°
2026-05-04 02:52 33.56486 -114.96674 36072 ft 592 kts 98°
2026-05-04 02:52 33.56183 -114.91747 36320 ft 592 kts 98°
2026-05-04 02:53 33.55882 -114.86825 36512 ft 593 kts 98°
2026-05-04 02:53 33.55585 -114.81907 36764 ft 591 kts 98°
2026-05-04 02:53 33.55289 -114.76995 37015 ft 590 kts 98°
2026-05-04 02:53 33.54994 -114.72089 37244 ft 590 kts 98°
2026-05-04 02:54 33.54699 -114.67178 37471 ft 589 kts 98°
2026-05-04 02:54 33.54431 -114.62327 37560 ft 577 kts 95°
2026-05-04 02:54 33.54446 -114.57529 36938 ft 574 kts 92°
2026-05-04 02:54 33.54336 -114.52743 35982 ft 574 kts 98°
2026-05-04 02:55 33.53181 -114.43353 34476 ft 562 kts 107°
2026-05-04 02:55 33.52353 -114.38762 33225 ft 569 kts 109°
2026-05-04 02:55 33.51443 -114.34143 32313 ft 568 kts 109°
2026-05-04 02:56 33.50527 -114.29566 31395 ft 561 kts 108°
2026-05-04 02:56 33.49625 -114.25055 30393 ft 554 kts 108°
2026-05-04 02:56 33.48733 -114.20584 29110 ft 549 kts 107°
2026-05-04 02:56 33.47855 -114.16167 27702 ft 544 kts 107°
2026-05-04 02:57 33.46975 -114.11750 26529 ft 544 kts 107°
2026-05-04 02:57 33.46103 -114.07365 25976 ft 536 kts 107°
2026-05-04 02:57 33.45234 -114.03007 25675 ft 542 kts 107°
2026-05-04 02:57 33.44357 -113.98617 25540 ft 539 kts 107°
2026-05-04 02:58 33.43484 -113.94249 25581 ft 540 kts 107°
2026-05-04 02:58 33.42608 -113.89878 25619 ft 540 kts 107°
2026-05-04 02:58 33.41732 -113.85518 25501 ft 535 kts 107°
2026-05-04 02:58 33.40870 -113.81237 25019 ft 529 kts 107°
2026-05-04 02:59 33.40013 -113.76977 24358 ft 521 kts 107°
2026-05-04 02:59 33.39168 -113.72796 23668 ft 512 kts 107°
2026-05-04 02:59 33.38335 -113.68686 22840 ft 504 kts 107°
2026-05-04 02:59 33.37518 -113.64661 22345 ft 493 kts 107°
2026-05-04 03:00 33.36699 -113.60644 22135 ft 500 kts 107°
2026-05-04 03:00 33.35879 -113.56627 21800 ft 495 kts 107°
2026-05-04 03:00 33.35070 -113.52653 21156 ft 489 kts 107°
2026-05-04 03:00 33.34268 -113.48726 20362 ft 482 kts 107°
2026-05-04 03:01 33.33480 -113.44858 19555 ft 476 kts 107°
2026-05-04 03:01 33.32785 -113.41024 19125 ft 471 kts 105°
2026-05-04 03:01 33.32138 -113.37168 18909 ft 474 kts 104°
2026-05-04 03:01 33.31497 -113.33321 18804 ft 472 kts 104°
2026-05-04 03:02 33.30846 -113.29469 18774 ft 472 kts 105°
2026-05-04 03:02 33.30187 -113.25623 18773 ft 472 kts 105°
2026-05-04 03:02 33.29523 -113.21775 18773 ft 472 kts 104°
2026-05-04 03:02 33.28933 -113.17911 18775 ft 473 kts 103°
2026-05-04 03:03 33.28397 -113.14042 18771 ft 473 kts 102°
2026-05-04 03:03 33.27868 -113.10186 18530 ft 468 kts 102°
2026-05-04 03:03 33.27500 -113.06337 17962 ft 466 kts 95°
2026-05-04 03:03 33.27529 -113.02476 17272 ft 460 kts 90°
2026-05-04 03:04 33.27645 -112.98697 16923 ft 454 kts 90°
2026-05-04 03:04 33.27714 -112.96190 16841 ft 456 kts 90°
2026-05-04 03:04 33.27841 -112.91128 16810 ft 455 kts 90°
2026-05-04 03:04 33.27901 -112.88630 16655 ft 452 kts 90°
2026-05-04 03:05 33.27991 -112.84892 16156 ft 447 kts 90°
2026-05-04 03:05 33.28133 -112.81211 15524 ft 441 kts 86°
2026-05-04 03:05 33.28479 -112.77600 14782 ft 434 kts 85°
2026-05-04 03:05 33.28825 -112.74012 14042 ft 426 kts 86°
2026-05-04 03:06 33.29156 -112.70530 13258 ft 418 kts 86°
2026-05-04 03:06 33.29478 -112.67103 12433 ft 411 kts 86°
2026-05-04 03:06 33.29791 -112.63736 11623 ft 405 kts 86°
2026-05-04 03:06 33.30099 -112.60438 11158 ft 391 kts 86°
2026-05-04 03:07 33.30398 -112.57218 10270 ft 390 kts 86°
2026-05-04 03:07 33.30694 -112.54035 9403 ft 376 kts 86°
2026-05-04 03:07 33.30978 -112.50960 8559 ft 390 kts 86°
2026-05-04 03:07 33.31280 -112.47570 8577 ft 417 kts 86°
2026-05-04 03:08 33.31595 -112.44129 9575 ft 416 kts 86°
2026-05-04 03:08 33.31911 -112.40699 10119 ft 413 kts 86°
2026-05-04 03:08 33.32223 -112.37319 10913 ft 405 kts 86°
2026-05-04 03:08 33.32528 -112.33981 11475 ft 400 kts 86°
2026-05-04 03:09 33.32820 -112.30813 11707 ft 364 kts 86°
2026-05-04 03:09 33.33089 -112.27943 11806 ft 337 kts 87°
2026-05-04 03:09 33.33350 -112.25012 11829 ft 374 kts 87°
2026-05-04 03:09 33.33631 -112.21789 11824 ft 402 kts 86°
2026-05-04 03:10 33.33930 -112.18442 11816 ft 406 kts 86°
2026-05-04 03:10 33.34232 -112.15152 11814 ft 390 kts 86°
2026-05-04 03:10 33.34522 -112.11980 11819 ft 378 kts 86°
2026-05-04 03:10 33.34755 -112.08909 11823 ft 359 kts 91°
2026-05-04 03:11 33.34730 -112.06026 11804 ft 338 kts 95°
2026-05-04 03:11 33.34688 -112.03261 11162 ft 338 kts 94°
2026-05-04 03:11 33.34648 -112.00431 10410 ft 340 kts 94°
2026-05-04 03:11 33.34610 -111.97583 9299 ft 345 kts 94°
2026-05-04 03:12 33.34574 -111.94753 8593 ft 334 kts 95°
2026-05-04 03:12 33.34343 -111.92052 8220 ft 319 kts 104°
2026-05-04 03:12 33.33957 -111.89564 8041 ft 291 kts 104°
2026-05-04 03:12 33.33618 -111.87259 7894 ft 265 kts 104°
2026-05-04 03:13 33.33323 -111.85219 7843 ft 240 kts 104°
2026-05-04 03:13 33.33047 -111.83325 7845 ft 226 kts 105°
2026-05-04 03:13 33.32773 -111.81496 7849 ft 221 kts 105°
2026-05-04 03:13 33.32499 -111.79688 7855 ft 227 kts 105°
2026-05-04 03:14 33.32192 -111.77716 7869 ft 240 kts 105°
2026-05-04 03:14 33.31918 -111.75849 7625 ft 222 kts 105°
2026-05-04 03:14 33.31649 -111.74025 7142 ft 220 kts 105°
2026-05-04 03:14 33.31391 -111.72284 6941 ft 205 kts 105°
2026-05-04 03:15 33.31164 -111.70723 6870 ft 188 kts 105°
2026-05-04 03:15 33.30950 -111.69160 6868 ft 197 kts 98°
2026-05-04 03:15 33.31303 -111.67596 6876 ft 199 kts 57°
2026-05-04 03:15 33.32379 -111.66609 6884 ft 196 kts 15°
2026-05-04 03:16 33.33651 -111.66622 6874 ft 175 kts 331°
2026-05-04 03:16 33.34606 -111.67447 6886 ft 180 kts 309°
2026-05-04 03:16 33.35585 -111.68552 6874 ft 200 kts 312°
2026-05-04 03:16 33.36639 -111.69561 6876 ft 193 kts 317°
2026-05-04 03:17 33.37754 -111.70472 6882 ft 194 kts 321°
2026-05-04 03:17 33.38893 -111.71323 6857 ft 190 kts 322°
2026-05-04 03:17 33.40002 -111.72116 6855 ft 182 kts 323°
2026-05-04 03:17 33.41074 -111.72871 6857 ft 176 kts 323°
2026-05-04 03:18 33.42116 -111.73610 6819 ft 174 kts 320°
2026-05-04 03:18 33.42844 -111.74669 6708 ft 162 kts 279°
2026-05-04 03:18 33.42906 -111.75975 6549 ft 154 kts 263°
2026-05-04 03:18 33.42878 -111.77273 5981 ft 161 kts 262°
2026-05-04 03:19 33.42848 -111.78666 5261 ft 171 kts 264°
2026-05-04 03:19 33.42838 -111.80046 4963 ft 158 kts 265°
2026-05-04 03:19 33.42843 -111.81312 4641 ft 148 kts 266°
2026-05-04 03:19 33.42853 -111.82468 4414 ft 129 kts 266°
2026-05-04 03:20 33.42864 -111.83453 4343 ft 107 kts 265°
2026-05-04 03:20 33.42869 -111.84311 4449 ft 111 kts 264°
2026-05-04 03:20 33.42866 -111.85257 4820 ft 112 kts 263°
2026-05-04 03:20 33.42883 -111.86235 4997 ft 116 kts 264°
2026-05-04 03:21 33.42901 -111.87194 5023 ft 115 kts 264°
2026-05-04 03:21 33.42922 -111.88206 4975 ft 125 kts 264°
2026-05-04 03:21 33.42950 -111.89209 4860 ft 115 kts 265°
2026-05-04 03:21 33.42947 -111.90212 4309 ft 131 kts 262°
2026-05-04 03:22 33.42915 -111.91344 3684 ft 138 kts 262°
2026-05-04 03:22 33.42881 -111.92483 3171 ft 134 kts 263°
2026-05-04 03:22 33.42874 -111.93563 2702 ft 124 kts 264°
2026-05-04 03:22 33.42903 -111.94586 2307 ft 119 kts 266°
2026-05-04 03:23 33.42915 -111.95384 2161 ft 107 kts 264°
2026-05-04 03:23 33.42925 -111.96233 2057 ft 100 kts 263°
2026-05-04 03:23 33.42902 -111.97060 1903 ft 98 kts 261°
2026-05-04 03:23 33.42881 -111.97866 1719 ft 97 kts 264°
2026-05-04 03:24 33.42893 -111.98713 1530 ft 104 kts 264°
2026-05-04 03:24 33.42891 -111.99598 1306 ft 109 kts 265°
2026-05-04 03:24 33.42879 -112.00491 1136 ft 103 kts 270°
2026-05-04 03:24 33.42883 -112.01012 1130 ft 9 kts 271°
2026-05-04 03:25 33.42891 -112.01059 1134 ft 0 kts 292°
2026-05-04 03:25 33.42956 -112.01111 1132 ft 18 kts 338°
2026-05-04 03:25 33.42990 -112.01142 1134 ft 3 kts 306°
2026-05-04 03:25 33.42999 -112.01205 1134 ft 9 kts 267°
2026-05-04 03:26 33.42995 -112.01316 1133 ft 19 kts 269°
2026-05-04 03:26 33.42993 -112.01483 1130 ft 12 kts 266°
2026-05-04 03:26 33.43001 -112.01546 1131 ft 0 kts 294°
2026-05-04 03:26 33.43096 -112.01586 1125 ft 30 kts
2026-05-04 03:27 33.43254 -112.01518 1132 ft 18 kts 26°
2026-05-04 03:27 33.43338 -112.01502 1132 ft 7 kts 351°
2026-05-04 03:27 33.43399 -112.01515 1133 ft 8 kts
2026-05-04 03:27 33.43439 -112.01491 1130 ft 21 kts 44°
2026-05-04 03:28 33.43457 -112.01436 1130 ft 0 kts 90°